Terminal Aerodrome Forecast
Issued by NWS

Home | Current Version | Previous Version | Text Only | Print | Product List | Glossary On
Versions: 1 2 3 4 5 6 7 8 9 10 11 12 13 14 15 16 17 18 19 20 21 22 23 24 25 26 27 28 29 30 31 32 33 34 35 36 37 38 39 40 41 42 43 44 45
000
FTUS45 KSLC 191448 AAA
TAF36U
TAF AMD
K36U 191448Z 1915/2012 VRB05KT P6SM FEW015 SCT180
     FM191800 20008KT P6SM SCT070 BKN100
     FM200900 VRB04KT P6SM VCSH SCT030 BKN040=

USA.gov is the U.S. government's official web portal to all federal, state and local government web resources and services.